Theta_e
297 297 297 297 297 297 297 297 297 297 298 297 298 298 299 300 300 301 304 304 303 303 303 303 305 309 310 310 310 309 311 310 308 313 314 313 313 313 314 313 312 314 314 314 314 316 319 303 305 314 308 301 300 300
298 299 299 298 297 297 297 297 297 297 297 297 298 298 298 299 300 301 303 304 304 303 303 305 306 307 310 310 310 310 309 310 311 312 310 310 311 312 313 316 310 315 315 316 315 317 305 304 305 304 303 304 300 301
299 299 299 299 299 298 297 297 298 298 298 297 297 297 298 298 299 300 302 304 303 302 302 302 304 307 308 309 309 310 309 310 310 311 308 310 312 309 312 313 313 310 310 312 313 311 307 305 305 304 303 302 300 301
299 299 299 299 299 299 298 298 298 298 298 299 298 298 298 298 299 299 300 303 303 301 302 301 302 303 305 307 306 308 310 310 310 310 309 309 310 310 311 310 311 311 310 311 310 309 306 306 305 304 302 301 300 298
299 300 300 300 299 299 299 299 299 299 298 300 299 298 298 299 299 299 300 302 303 303 301 299 301 302 303 303 303 305 307 306 305 306 306 308 307 308 305 305 308 310 311 311 313 311 310 307 304 302 300 298 298 296
300 299 299 299 299 300 300 300 300 299 299 299 300 299 298 299 299 300 301 302 303 303 301 300 299 301 303 304 305 305 305 304 305 305 305 305 306 307 308 308 307 310 310 310 310 308 306 304 301 300 299 298 297 294
300 300 299 300 299 299 299 299 299 299 299 299 300 300 299 298 299 301 301 301 302 302 300 296 297 298 300 301 301 300 301 302 303 303 303 304 304 304 304 308 308 309 308 309 309 307 299 299 298 298 298 296 294 291
300 300 300 299 299 299 299 299 299 300 300 299 299 300 300 299 299 301 301 302 303 302 300 299 297 297 297 299 299 300 301 301 302 303 301 300 301 301 304 305 306 306 305 306 306 305 304 302 299 297 295 293 291 287
300 299 299 300 299 298 299 300 300 301 300 300 300 300 300 300 301 301 302 302 302 302 298 297 298 300 298 299 299 299 300 301 300 301 300 301 302 302 303 304 305 304 305 305 301 301 302 302 298 295 292 290 288 285
300 300 299 299 300 300 299 300 300 300 300 301 300 301 300 302 301 301 302 301 301 300 299 297 297 298 299 298 298 298 298 301 302 300 299 301 302 302 302 303 303 305 305 303 299 295 296 295 295 293 292 290 286 284
300 300 299 299 299 300 300 300 302 301 300 301 300 300 300 301 301 301 298 298 298 299 297 296 297 298 298 300 300 298 300 299 302 301 301 301 301 300 302 302 302 303 304 303 303 304 303 302 298 294 290 286 284 283
300 300 300 300 300 300 300 300 300 300 300 300 301 300 301 302 300 299 299 299 301 302 295 298 297 299 298 299 298 297 300 298 302 297 300 302 301 302 303 303 302 301 302 300 300 301 301 299 296 294 289 285 283 282
300 300 300 300 300 300 299 300 300 300 299 301 301 300 298 298 300 301 301 301 300 297 296 297 298 298 298 298 298 299 301 300 298 299 300 301 300 302 302 302 300 300 300 299 299 298 298 295 293 290 285 284 283 282
300 301 300 300 300 300 300 299 300 299 301 300 298 298 300 298 301 300 301 300 298 297 298 299 298 299 298 298 297 300 300 299 301 302 301 299 302 304 301 299 298 298 298 298 299 297 296 293 289 285 284 283 283 282
300 300 300 300 300 299 299 300 300 301 301 299 299 300 297 295 295 297 299 298 299 299 299 299 299 299 298 298 299 299 300 302 301 302 302 301 301 300 300 298 298 298 297 298 298 295 294 288 285 284 283 282 282 282
299 300 300 299 299 300 299 299 300 301 300 298 296 295 294 297 296 297 298 298 299 299 300 300 298 300 301 299 300 300 301 301 301 301 300 301 300 299 298 298 297 297 298 298 295 294 288 285 284 283 282 282 282 282
300 300 299 300 299 299 300 300 300 301 299 297 296 295 296 298 299 298 299 299 299 300 301 299 300 301 299 300 300 300 300 301 301 300 301 301 300 298 296 296 296 297 297 295 292 289 286 284 283 282 282 282 282 282
300 300 300 299 299 299 300 300 300 299 299 298 297 297 298 299 298 298 298 299 300 301 300 301 298 300 300 301 300 300 299 299 300 301 300 300 297 296 296 296 295 296 295 292 290 286 284 283 283 282 282 282 282 281
299 298 299 299 299 300 300 299 299 299 298 298 298 299 299 299 299 299 299 299 300 301 300 299 300 301 301 299 300 299 301 300 298 297 297 296 296 294 294 294 295 295 292 290 287 285 284 283 283 283 282 282 282 281
298 298 299 300 301 300 299 298 299 299 298 298 298 298 298 299 300 300 299 300 300 301 300 300 301 299 299 299 300 300 300 299 298 294 292 292 293 293 293 294 293 292 290 287 285 284 283 282 282 282 282 282 281 281
299 299 300 300 299 299 297 297 297 298 298 298 298 298 297 299 299 299 299 299 300 298 300 299 300 300 300 300 300 301 301 299 298 298 293 292 292 292 292 292 293 291 289 286 284 283 283 283 283 283 282 282 281 281
299 300 300 300 299 298 297 298 298 298 297 298 298 298 297 298 298 298 298 300 299 300 300 299 300 300 300 300 301 300 300 299 298 297 297 297 292 290 292 293 292 290 287 286 284 284 283 283 283 282 282 281 281 280
300 301 300 299 298 298 297 297 298 298 298 298 297 298 297 297 297 298 298 298 298 297 299 299 299 298 298 298 297 297 296 296 296 295 293 292 292 293 294 293 292 290 286 285 284 284 283 283 282 282 281 281 281 280
300 298 297 297 297 296 297 297 297 297 298 299 298 297 297 297 296 297 298 297 295 296 297 297 297 295 293 293 294 294 293 293 293 290 291 294 294 293 294 293 291 287 286 285 284 283 283 282 282 282 281 281 280 280
296 293 295 292 295 294 295 296 297 297 297 297 296 296 296 296 297 297 297 296 295 295 295 296 296 294 293 292 292 291 291 292 293 293 293 294 295 293 291 289 287 285 285 284 284 283 282 282 282 282 281 281 280 280
293 292 292 292 293 295 295 295 295 296 296 295 296 295 294 295 296 297 296 295 293 294 294 294 293 292 291 292 292 292 292 292 294 295 295 294 295 294 290 286 285 285 285 284 283 283 283 282 282 282 281 280 280 279
292 291 294 294 295 295 294 295 295 296 295 295 295 293 294 296 296 294 294 294 294 293 293 293 293 294 294 294 294 294 294 294 295 296 295 292 290 288 287 287 286 286 285 284 283 283 283 283 282 282 281 280 280 279
293 293 292 290 291 292 291 292 293 295 294 293 292 292 292 291 292 291 292 293 294 294 293 294 294 295 295 294 293 291 292 293 292 290 289 287 287 286 285 285 285 285 284 284 283 283 283 282 282 281 280 280 279 279
291 290 290 287 289 291 292 292 294 293 292 291 291 291 291 288 289 291 292 294 295 295 294 293 293 293 291 290 290 289 289 289 288 287 287 287 286 286 286 285 285 284 284 284 283 283 282 281 281 281 280 279 279 279
290 289 288 286 287 289 289 289 290 290 290 290 289 288 287 287 289 292 293 293 293 294 293 293 292 291 291 291 290 290 289 289 289 289 288 288 287 286 286 285 284 284 283 283 283 282 282 282 281 281 280 279 279 278
289 290 288 287 288 289 289 289 289 290 289 289 289 287 287 288 289 291 293 293 293 294 292 292 292 292 292 292 291 290 289 288 287 288 288 287 286 286 285 284 284 283 283 283 282 282 281 281 280 280 280 279 279 278
288 286 286 287 289 290 290 290 289 289 289 289 287 289 288 287 286 287 288 292 293 294 294 293 293 292 292 290 289 289 289 289 289 288 288 287 286 286 285 284 284 283 283 282 282 281 280 280 280 280 280 279 279 278
288 288 289 288 288 289 289 289 288 289 287 286 286 286 285 285 283 286 287 290 292 292 292 291 291 290 289 289 289 289 289 289 289 289 289 288 288 286 285 283 282 282 282 281 281 280 280 280 280 280 279 279 278 278
Wind_Speed
49 49 48 48 47 46 45 43 42 41 39 40 41 41 40 41 39 41 36 38 30 14 11 25 10 4 6 10 4 8 6 2 2 4 4 4 5 6 4 5 7 8 7 4 3 5 8 3 4 5 3 2 3 7
45 48 50 50 48 47 45 44 43 42 40 40 41 41 40 43 40 38 35 28 38 22 11 16 13 12 8 11 13 15 4 7 11 3 3 2 3 3 5 4 2 3 5 4 8 5 1 5 3 5 7 7 5 5
45 46 47 50 49 49 48 47 45 43 43 42 41 41 40 41 40 39 38 23 38 23 13 16 22 11 9 4 6 7 4 6 6 5 5 2 4 3 4 5 4 3 4 2 2 3 7 10 9 10 9 9 10 8
44 47 47 49 48 48 49 49 48 46 46 45 44 41 41 41 40 38 39 36 38 12 5 10 16 25 28 14 4 2 9 8 7 5 2 2 2 6 3 1 2 2 6 3 5 10 9 13 14 16 11 10 8 9
41 48 48 49 48 46 46 49 48 47 47 48 46 44 42 40 38 35 35 35 39 20 6 8 25 25 20 25 24 17 9 3 3 2 1 2 2 2 1 0 5 10 7 5 8 11 12 8 14 17 14 15 13 12
41 42 46 48 47 46 44 46 46 45 46 46 46 45 43 42 36 33 23 36 37 39 6 4 9 17 20 19 19 18 17 13 8 3 3 3 5 5 4 5 5 19 25 31 18 9 10 7 11 16 17 15 13 11
41 42 44 48 48 47 46 47 45 45 46 47 44 45 43 41 40 45 11 13 44 37 8 4 5 9 18 16 12 10 9 6 7 4 5 6 4 5 3 9 8 15 21 22 24 15 9 16 11 18 17 15 14 10
41 41 42 44 47 47 47 46 46 46 45 46 44 43 41 39 37 40 24 13 42 38 9 4 3 7 16 7 6 10 7 6 6 6 5 4 4 7 6 6 24 30 22 22 22 20 15 16 13 19 19 18 14 10
40 44 41 44 46 46 45 46 44 46 46 46 44 40 36 31 30 39 32 28 48 19 11 5 8 4 15 7 7 8 8 3 6 4 6 8 5 9 9 21 26 25 21 17 21 17 16 16 20 22 23 19 14 12
40 44 42 40 43 45 43 45 47 54 50 51 44 27 12 27 32 31 25 29 13 12 10 4 11 5 16 8 6 7 6 3 3 6 8 5 10 25 26 36 33 33 27 27 26 18 19 21 24 27 24 17 13 11
44 44 45 44 42 43 42 45 53 58 50 42 17 12 27 40 30 16 8 8 7 4 13 10 10 11 13 6 4 7 4 4 3 4 6 5 5 8 33 40 46 39 33 30 25 24 18 17 28 29 23 18 16 14
47 47 46 46 44 43 44 46 56 58 39 31 21 33 31 14 9 7 7 5 5 6 8 12 14 15 12 9 5 8 4 4 5 9 4 4 5 28 29 30 33 37 30 28 25 23 20 20 23 24 21 19 17 14
52 48 47 47 45 46 45 54 55 43 38 33 12 15 7 6 6 9 10 3 6 9 12 18 9 11 8 6 5 4 6 5 5 4 4 5 11 13 17 22 26 29 29 29 27 21 19 21 22 21 21 19 18 14
47 50 50 49 46 48 51 54 52 49 37 8 7 7 5 5 6 4 6 8 10 21 32 34 12 6 6 5 4 7 4 4 4 5 6 4 23 25 20 22 26 32 32 35 27 24 23 24 23 21 19 20 16 13
49 48 45 45 46 44 56 59 48 50 10 5 6 5 4 4 6 18 25 21 20 42 40 20 10 6 3 4 3 4 6 6 6 5 6 18 16 20 22 25 29 34 37 33 28 28 26 25 23 23 21 19 15 11
42 42 41 41 48 56 60 58 41 26 4 5 4 5 6 9 6 10 18 24 34 38 28 9 5 4 4 5 5 7 6 7 4 5 12 7 10 17 23 27 29 35 36 32 32 27 25 25 24 23 22 18 13 9
43 25 36 50 59 65 50 42 18 5 5 3 2 10 7 11 20 19 26 28 42 34 9 4 6 7 5 4 5 5 6 6 16 14 12 11 12 17 22 27 31 37 36 34 30 26 24 25 24 23 22 18 12 8
44 51 56 59 64 44 30 8 6 6 3 4 3 6 5 15 22 20 15 38 30 26 14 5 9 6 7 9 4 5 16 14 18 16 12 13 13 17 22 29 34 36 35 32 27 26 27 27 25 23 18 14 11 8
54 58 61 57 40 26 5 5 4 4 6 6 12 9 8 14 15 18 31 32 20 23 16 8 4 4 4 5 6 9 13 21 18 14 12 13 14 20 26 30 35 36 33 29 27 28 26 24 22 21 16 13 10 7
53 52 42 26 23 6 6 5 6 8 3 5 9 8 10 9 17 21 33 20 19 12 3 3 4 5 6 8 10 12 12 17 16 16 17 19 19 23 28 34 37 34 30 28 26 25 26 24 21 18 14 12 9 7
43 35 35 18 10 9 7 4 6 6 7 5 12 6 7 13 14 13 16 19 7 5 3 7 8 10 9 6 6 8 10 13 18 21 24 25 24 27 33 36 34 32 30 29 28 27 25 23 19 17 15 11 8 8
29 28 19 7 7 6 8 7 9 7 5 7 6 5 5 2 4 9 15 7 5 8 8 10 13 13 14 12 11 12 12 15 16 20 21 24 34 35 38 36 34 32 29 28 27 26 23 19 17 16 14 11 9 8
27 22 9 6 6 5 5 5 4 3 4 3 3 3 2 3 7 16 4 5 5 8 12 12 11 10 9 10 11 12 14 18 20 21 22 31 36 38 36 33 31 28 28 27 23 20 19 18 17 15 13 11 9 8
15 5 4 3 4 3 3 3 4 5 5 3 3 4 4 3 8 3 3 5 7 12 14 13 13 13 11 11 13 15 19 20 21 24 30 36 38 35 31 28 26 23 22 22 22 21 19 18 17 15 13 10 9 8
5 4 3 3 3 4 3 3 2 3 3 2 3 2 3 5 2 3 2 2 9 13 14 12 11 12 17 18 18 19 19 19 25 32 33 34 34 31 27 24 23 21 19 21 23 21 20 18 16 14 12 10 9 8
4 1 2 2 1 3 3 3 3 4 3 3 2 4 5 3 4 4 3 10 15 23 22 22 23 20 18 19 22 22 21 20 27 32 31 29 26 27 29 29 27 24 23 21 19 20 18 16 14 13 11 10 9 9
3 2 2 3 4 7 4 3 4 3 4 5 4 5 4 5 5 1 0 8 12 19 21 21 20 20 24 24 22 20 20 22 25 24 25 23 19 14 11 15 19 18 20 21 19 16 14 14 13 11 11 11 9 9
3 2 4 2 5 4 4 2 2 2 2 3 5 2 4 2 1 2 0 7 11 20 22 19 17 20 24 24 22 23 25 24 22 21 22 20 19 18 17 15 14 16 14 15 15 14 12 12 12 12 11 9 9 10
4 3 5 4 4 5 4 2 1 3 1 2 3 2 3 3 3 3 6 15 21 23 26 24 23 24 24 23 23 22 23 24 26 26 23 23 22 21 20 18 16 16 18 18 17 15 13 12 11 10 10 10 11 11
2 3 4 3 4 3 3 2 3 5 6 9 8 10 9 9 11 12 15 18 18 20 21 22 25 26 26 25 25 22 19 17 12 7 14 16 16 16 16 16 15 14 15 16 16 15 13 11 10 9 9 9 9 10
3 4 5 4 3 4 8 18 16 10 6 14 20 18 11 10 19 14 13 14 17 17 19 22 23 21 22 22 21 22 21 19 16 13 12 13 14 13 14 14 13 13 13 13 13 12 12 11 10 9 9 8 9 10
4 3 4 4 2 4 6 6 7 6 7 9 8 6 6 6 6 8 9 13 16 16 15 16 19 20 17 16 16 14 15 15 14 11 10 11 12 14 14 14 14 14 13 13 12 12 11 10 9 8 8 8 9 9
4 7 11 6 3 2 3 5 5 4 8 5 8 7 6 5 4 5 8 7 13 14 15 16 16 18 18 17 15 12 14 14 12 11 9 9 9 11 13 14 14 14 13 12 12 11 10 9 8 8 8 8 9 9
Wind_Direction
229 226 225 224 223 223 221 219 218 217 215 213 211 212 211 211 209 208 209 206 196 198 207 226 252 238 179 191 152 159 126 190 97 174 178 176 205 209 184 172 173 178 179 192 193 221 266 131 143 194 143 112 111 107
227 225 225 224 223 221 219 216 214 212 212 211 210 210 209 209 207 206 212 210 206 203 204 190 204 227 216 203 200 180 201 165 175 146 201 187 201 176 173 213 154 226 209 189 203 221 116 208 238 200 167 170 193 156
224 224 222 221 221 220 219 217 215 215 214 213 212 210 209 208 206 207 206 202 191 195 188 211 199 165 162 145 186 174 189 169 173 136 156 184 234 158 190 225 195 205 184 237 342 213 232 229 229 229 209 193 206 240
224 221 220 217 217 218 217 216 217 217 215 213 210 209 206 207 206 207 207 205 195 169 169 205 204 210 220 227 240 128 163 150 145 153 175 198 201 207 202 213 196 148 161 213 252 276 265 247 233 240 211 201 196 192
217 215 215 214 214 212 212 211 212 212 212 209 209 208 204 204 206 208 207 209 207 185 158 161 200 206 212 224 230 232 232 177 90 104 170 213 245 236 202 264 198 179 196 210 257 259 236 263 213 214 185 175 186 189
212 212 211 210 210 209 207 204 206 205 207 206 206 206 203 201 200 195 202 213 205 206 176 151 171 194 192 194 202 214 226 236 212 151 258 246 235 236 236 239 232 215 229 241 253 269 242 210 186 186 182 187 200 195
208 208 206 207 205 206 206 206 207 206 204 205 204 204 201 200 200 191 201 204 197 192 156 109 142 171 188 198 207 214 216 217 217 188 215 248 224 230 262 246 214 241 265 262 254 235 156 179 186 186 191 193 189 190
205 203 203 204 205 204 206 207 204 203 202 201 202 202 199 198 201 199 214 187 192 185 183 142 119 137 170 152 145 178 166 188 216 220 186 210 209 213 248 220 242 256 248 244 238 221 239 202 186 190 190 186 183 190
204 202 202 197 198 200 201 201 201 199 197 196 195 191 191 192 195 196 192 176 177 180 159 143 148 149 160 146 158 168 181 174 209 218 209 194 198 227 201 221 237 232 229 222 201 195 182 193 192 189 188 186 193 193
198 196 194 191 192 196 199 196 202 196 187 187 178 176 172 182 183 161 161 179 175 180 151 142 132 146 161 150 161 144 180 208 208 219 180 223 249 248 245 251 254 258 238 218 176 170 182 187 191 192 193 194 197 191
196 194 192 190 188 193 191 188 180 178 173 167 170 158 147 163 151 164 164 176 164 159 162 145 156 134 166 155 140 190 173 182 232 199 203 234 251 229 242 242 242 240 238 229 231 231 216 223 199 193 191 193 189 184
192 190 187 186 185 185 182 175 172 169 171 173 150 131 136 149 171 168 162 177 166 161 146 145 149 132 148 161 127 175 187 168 244 153 229 256 239 243 238 238 232 230 220 208 205 203 198 198 200 196 193 188 182 181
186 184 185 185 185 183 180 178 171 166 155 135 141 167 188 161 156 173 151 192 138 140 152 150 136 130 134 162 118 165 180 210 142 220 237 238 263 263 234 227 216 210 201 196 184 190 186 190 187 192 186 181 180 180
177 174 183 181 180 181 177 173 169 154 146 141 148 159 180 169 188 176 157 139 132 138 145 148 126 128 136 154 151 167 170 147 224 230 235 234 240 240 224 206 195 187 189 182 185 183 183 186 182 182 183 181 178 182
160 171 169 173 176 171 169 172 164 159 150 125 139 169 199 129 96 140 125 128 145 151 147 140 92 111 130 142 194 132 173 223 226 231 222 236 251 240 210 197 194 189 183 183 184 178 180 182 181 174 175 176 179 186
154 153 162 168 165 159 157 154 154 153 101 144 122 102 110 105 118 129 135 129 145 148 144 129 126 141 168 150 159 201 190 211 232 221 242 257 227 213 202 195 192 188 182 181 179 177 178 180 178 174 172 179 183 188
151 152 158 160 149 145 142 138 129 102 112 120 87 125 122 141 159 155 152 151 158 148 155 145 143 178 120 158 201 192 212 216 228 244 249 248 237 209 194 188 185 182 179 179 174 175 176 174 175 176 177 180 183 198
137 147 153 145 143 136 126 113 107 107 95 109 106 138 133 152 154 151 154 153 156 165 149 162 130 166 166 178 211 215 218 228 244 255 246 231 216 198 193 185 180 179 176 174 176 176 177 176 178 181 180 180 191 204
140 145 147 143 143 134 95 93 101 97 89 99 107 109 101 137 170 164 148 159 168 166 138 148 126 168 200 209 216 205 213 222 215 212 205 203 198 190 184 181 178 176 175 176 178 180 180 182 181 181 182 190 198 212
140 144 147 134 132 108 77 49 81 88 105 120 121 106 104 123 148 159 157 152 144 158 140 174 189 210 203 187 181 210 227 220 211 169 169 179 182 184 183 178 175 173 174 175 178 180 178 178 181 186 193 198 205 227
137 136 141 121 83 73 91 93 70 91 115 100 118 96 93 125 132 143 165 178 171 185 195 213 199 194 195 206 225 234 234 222 212 210 188 177 180 185 179 178 177 178 179 179 178 180 184 184 184 190 197 198 214 235
114 144 134 87 76 76 73 52 103 98 73 115 98 96 102 101 112 154 155 189 207 199 182 193 201 210 218 223 230 232 222 206 204 201 191 197 177 181 180 179 180 181 184 185 185 184 180 183 190 196 195 206 226 241
127 132 88 54 70 65 99 114 104 108 117 115 94 93 103 130 153 149 191 215 215 194 185 192 207 214 216 218 216 211 210 208 200 201 190 182 179 177 179 181 186 187 184 187 185 182 186 191 194 196 203 215 233 244
113 66 71 79 69 86 112 61 80 91 102 118 111 113 150 136 157 198 216 196 194 184 190 198 202 190 180 181 184 189 191 195 188 176 176 172 170 175 181 184 185 191 191 177 177 185 191 196 196 202 211 224 239 247
77 14 71 57 102 106 102 110 96 94 104 113 122 152 152 131 155 205 237 210 184 192 199 202 205 207 187 178 177 178 181 186 178 166 167 173 172 172 175 181 184 183 180 189 191 192 194 197 203 211 220 233 245 252
83 1 72 134 114 97 143 111 137 145 120 132 151 124 143 170 184 220 196 185 185 192 190 188 188 184 179 177 168 170 172 175 171 165 166 175 183 181 177 176 177 183 191 196 199 197 200 205 210 217 226 238 248 255
109 134 108 87 118 122 104 94 119 124 141 169 166 169 162 179 208 163 41 185 191 191 188 186 183 173 161 157 156 155 156 162 170 168 166 167 174 179 196 195 198 199 198 193 193 202 209 212 216 221 228 239 249 256
99 94 136 86 87 60 114 92 111 146 160 155 120 99 138 149 122 5 260 186 178 166 160 157 158 159 156 155 155 154 152 156 164 161 155 155 158 163 165 169 178 189 195 197 198 199 206 213 217 220 228 237 246 256
66 85 93 55 63 50 38 54 72 58 77 117 107 111 108 77 38 90 129 147 151 156 154 153 152 159 155 151 148 151 154 158 160 161 167 167 171 177 180 183 185 189 188 189 191 196 206 212 215 222 228 235 243 257
70 64 91 69 64 48 6 14 79 84 91 99 103 111 91 79 80 114 127 139 147 152 152 154 154 160 154 153 150 152 155 158 161 164 178 184 185 186 192 194 192 192 194 196 199 202 205 211 220 229 238 245 253 258
101 100 81 63 81 79 69 86 84 94 85 98 117 106 106 103 84 99 134 149 152 148 150 153 156 163 164 164 163 160 157 159 163 169 174 173 183 187 190 192 191 193 195 197 198 202 208 214 222 231 240 248 255 259
42 70 119 104 118 94 70 58 63 67 72 78 58 84 83 78 66 52 59 139 153 153 155 157 159 160 163 160 159 163 170 169 168 167 164 172 182 189 191 195 199 201 201 202 204 209 215 223 230 238 245 251 256 261
69 79 92 93 81 83 62 95 65 69 44 48 39 49 54 64 80 59 56 134 160 161 158 153 158 158 157 159 161 158 162 168 172 177 182 183 183 191 196 197 199 199 200 203 209 216 222 227 234 241 247 253 260 267